Weather History for Chicago Midway, IL

Change the Weather History Date:

Wednesday, October 3, 2012

  Actual Average Record
Temperature  
Mean Temperature 65 °F 59 °F  
Max Temperature 69 °F 68 °F 91 °F (1954)
Min Temperature 61 °F 50 °F 29 °F (1974)
Degree Days  
Heating Degree Days 0 7  
Month to date heating degree days 8 21  
Since 1 July heating degree days 81 103  
Cooling Degree Days 0 1  
Month to date cooling degree days 0 3  
Year to date cooling degree days 1467 1032  
Growing Degree Days 14 (Base 50)    
Moisture  
Dew Point 57 °F    
Average Humidity 78    
Maximum Humidity 90    
Minimum Humidity 59    
Precipitation  
Precipitation 0.03 in 0.10 in 3.95 in (1954)
Month to date precipitation 0.03 0.29  
Year to date precipitation 21.01 30.15  
Sea Level Pressure  
Sea Level Pressure 29.94 in    
Wind  
Wind Speed 7 mph (SSW)    
Max Wind Speed 13 mph    
Max Gust Speed 15 mph    
Visibility 7 miles    
Events Rain    
T = Trace of Precipitation, MM = Missing Value Source: NWS Daily Summary

Daily Weather History Graph

Daily Weather History Graph

Search for Another Location

Airport:

Trip Planner

Search our weather history database for the weather conditions in past years. The results will help you decide how hot, cold, wet, or windy it might be!

Date:

Astronomy

Oct. 03, 2012 Rise Set
Actual Time 6:50 AM CDT 6:28 PM CDT
Civil Twilight 6:22 AM CDT 6:56 PM CDT
Nautical Twilight 5:50 AM CDT 7:28 PM CDT
Astronomical Twilight 5:18 AM CDT 8:00 PM CDT
Moon 8:16 PM CDT (10/3) 10:17 AM CDT (10/3)
Length of Visible Light 12h 33m
Length of Day
11h 37m
Waning Gibbous, 88% of the Moon is Illuminated
Oct 3
Waning Gibbous
Oct 8
Last Quarter
Oct 15
New
Oct 21
First Quarter
Oct 29
Full

Hourly Weather History & Observations

Time (CDT) Temp. Dew Point Humidity Pressure Visibility Wind Dir Wind Speed Gust Speed Precip Events Conditions
12:51 AM 64.0 °F 55.9 °F 75% 29.88 in 10.0 mi NNE 6.9 mph - N/A   Overcast
1:10 AM 64.4 °F 55.4 °F 73% 29.89 in 10.0 mi NNE 8.1 mph - N/A   Overcast
1:51 AM 64.0 °F 57.0 °F 78% 29.88 in 10.0 mi NNE 5.8 mph - N/A   Overcast
2:51 AM 64.9 °F 55.9 °F 73% 29.86 in 10.0 mi ENE 6.9 mph - N/A   Overcast
3:51 AM 64.0 °F 55.9 °F 75% 29.88 in 10.0 mi East 9.2 mph - N/A   Overcast
4:24 AM 62.6 °F 55.4 °F 77% 29.89 in 5.0 mi East 4.6 mph - N/A   Haze
4:51 AM 63.0 °F 57.0 °F 81% 29.89 in 6.0 mi East 5.8 mph - 0.00 in   Light Drizzle
5:23 AM 62.6 °F 57.2 °F 82% 29.91 in 2.0 mi SE 5.8 mph - 0.00 in   Light Drizzle
5:51 AM 62.1 °F 59.0 °F 90% 29.90 in 2.0 mi SSE 3.5 mph - 0.00 in   Light Drizzle
5:56 AM 62.6 °F 57.2 °F 82% 29.91 in 3.0 mi Calm Calm - 0.00 in   Light Drizzle
6:05 AM 62.6 °F 57.2 °F 82% 29.91 in 3.0 mi SE 3.5 mph - 0.00 in   Light Drizzle
6:51 AM 62.1 °F 57.9 °F 86% 29.91 in 4.0 mi South 4.6 mph - 0.00 in   Overcast
7:51 AM 62.1 °F 57.0 °F 84% 29.93 in 5.0 mi South 4.6 mph - N/A   Haze
8:18 AM 60.8 °F 57.2 °F 88% 29.94 in 2.5 mi SSW 4.6 mph - 0.01 in   Overcast
8:37 AM 60.8 °F 57.2 °F 88% 29.94 in 3.0 mi South 5.8 mph - 0.01 in   Overcast
8:51 AM 61.0 °F 57.0 °F 87% 29.94 in 3.0 mi South 4.6 mph - 0.01 in Rain Light Rain
9:06 AM 60.8 °F 57.2 °F 88% 29.94 in 5.0 mi South 5.8 mph - 0.00 in Rain Light Rain
9:46 AM 62.6 °F 57.2 °F 82% 29.95 in 7.0 mi South 4.6 mph - 0.01 in   Overcast
9:51 AM 62.1 °F 57.0 °F 84% 29.94 in 7.0 mi South 5.8 mph - 0.01 in Rain Light Rain
10:51 AM 63.0 °F 57.0 °F 81% 29.94 in 7.0 mi WSW 4.6 mph - 0.00 in   Overcast
11:51 AM 64.0 °F 57.0 °F 78% 29.94 in 8.0 mi SW 5.8 mph - N/A   Overcast
12:09 PM 64.4 °F 57.2 °F 77% 29.95 in 10.0 mi South 4.6 mph - N/A   Overcast
12:51 PM 64.0 °F 55.9 °F 75% 29.94 in 10.0 mi Variable 6.9 mph - N/A   Overcast
1:23 PM 66.2 °F 57.2 °F 73% 29.93 in 10.0 mi SW 6.9 mph - N/A   Overcast
1:51 PM 66.0 °F 55.9 °F 70% 29.92 in 10.0 mi SW 6.9 mph - N/A   Overcast
2:39 PM 66.2 °F 55.4 °F 68% 29.93 in 10.0 mi West 5.8 mph - N/A   Mostly Cloudy
2:51 PM 68.0 °F 55.9 °F 65% 29.92 in 10.0 mi WSW 8.1 mph - N/A   Overcast
3:51 PM 66.9 °F 55.9 °F 68% 29.93 in 10.0 mi WSW 8.1 mph - N/A   Overcast
4:51 PM 66.0 °F 57.0 °F 73% 29.94 in 10.0 mi WSW 8.1 mph - N/A   Overcast
5:51 PM 64.9 °F 57.0 °F 75% 29.96 in 9.0 mi WSW 8.1 mph - N/A   Overcast
6:04 PM 64.4 °F 57.2 °F 77% 29.97 in 9.0 mi SW 6.9 mph - N/A   Overcast
6:28 PM 64.4 °F 57.2 °F 77% 29.98 in 9.0 mi SSW 8.1 mph - N/A   Overcast
6:51 PM 64.0 °F 59.0 °F 84% 29.97 in 3.0 mi SSW 11.5 mph - 0.00 in Rain Light Rain
7:33 PM 62.6 °F 59.0 °F 88% 29.99 in 4.0 mi SSW 6.9 mph - 0.01 in   Overcast
7:51 PM 63.0 °F 59.0 °F 87% 29.99 in 6.0 mi SSW 10.4 mph - 0.01 in   Overcast
8:51 PM 63.0 °F 57.0 °F 81% 30.00 in 9.0 mi SSW 8.1 mph - N/A   Overcast
9:51 PM 62.6 °F 55.4 °F 77% 30.02 in 10.0 mi SSW 5.8 mph - N/A   Overcast
10:51 PM 63.0 °F 55.9 °F 78% 30.02 in 9.0 mi SSW 6.9 mph - N/A   Overcast
11:51 PM 63.0 °F 55.9 °F 78% 30.02 in 9.0 mi SSW 8.1 mph - N/A   Overcast